SCP
0 0 -0 -0 -0 -0 -0 -0 -0 -0 -0 -0 -0 -0 -0 -0 0 0 0 0 0 0 0 0 0 0 0 0 0 0 0 0 0 0 0 0 0 0 0 0 0 0 0 0 0
0 0 0 0 0 0 0 0 -0 -0 -0 -0 -0 -0 0 0 0 0 0 0 0 0 0 0 0 0 0 0 0 0 0 0 0 0 0 0 0 0 0 0 0 0 0 0 0
0 0 0 0 0 0 0 0 0 0 0 -0 -0 0 0 0 0 0 0 0 0 0 0 0 0 0 0 0 0 0 0 0 0 0 0 0 0 0 0 0 0 0 0 0 0
0 0 0 0 0 0 0 0 0 0 0 -0 0 0 0 0 0 0 0 0 0 0 0 0 0 0 0 0 0 0 0 0 0 0 0 0 0 0 0 0 0 0 0 0 0
0 0 0 0 0 0 0 0 0 0 0 0 0 0 0 0 0 0 0 0 0 0 0 0 0 0 0 0 0 0 0 0 0 0 0 0 0 0 0 0 0 0 0 0 0
0 0 0 0 0 0 0 0 0 0 0 0 0 0 0 0 0 0 0 0 0 0 0 0 0 0 0 0 0 0 0 0 0 0 0 0 0 0 0 0 0 0 0 0 0
0 0 0 0 0 0 0 0 0 0 0 0 0 0 0 0 0 0 0 0 0 0 0 0 0 0 0 0 0 0 0 0 0 0 0 0 0 0 0 0 0 0 0 0 0
0 0 0 0 0 0 0 0 0 0 0 0 0 0 0 0 0 0 0 0 0 0 0 0 0 0 0 0 0 0 0 0 0 0 0 0 0 0 0 0 0 0 0 0 0
0 0 0 0 0 0 0 0 0 0 0 0 0 0 0 0 0 0 0 0 0 0 0 0 0 0 0 0 0 0 0 0 0 0 0 0 0 0 0 0 0 0 0 0 0
0 0 0 0 0 0 0 0 0 0 0 0 0 0 0 0 0 0 0 0 0 0 0 0 0 0 0 0 0 0 0 0 0 0 0 0 0 0 0 0 0 0 0 0 0
0 0 0 0 0 0 0 0 0 0 0 0 0 0 0 0 0 0 0 0 0 0 0 0 0 0 0 0 0 0 0 0 0 0 0 0 0 0 0 0 0 0 0 0 0
0 0 0 0 0 0 0 0 0 0 0 0 0 0 0 0 0 0 0 0 0 0 0 0 0 0 0 0 0 0 0 0 0 0 0 0 0 0 0 0 0 0 0 0 0
0 0 0 0 0 0 0 0 0 0 0 0 0 0 0 0 0 0 0 0 0 0 0 0 0 0 0 0 0 0 0 0 0 0 0 0 0 0 0 0 0 0 0 0 0
0 0 0 0 0 0 0 0 0 0 0 0 0 0 0 0 0 -0 0 0 0 0 0 0 0 0 0 0 0 0 0 0 0 0 0 0 0 0 0 0 0 0 0 0 0
0 0 0 0 0 0 0 0 0 0 0 0 0 0 0 0 0 0 0 0 0 0 0 0 0 0 0 0 0 0 0 0 0 0 0 0 0 0 0 0 0 0 0 0 0
0 0 0 0 0 0 0 0 0 0 0 0 0 0 0 0 0 0 0 0 0 0 0 0 0 0 0 0 0 0 0 0 0 0 0 0 0 0 0 0 0 0 0 0 0
0 0 0 0 0 0 0 0 0 0 0 0 0 0 0 0 0 0 0 0 0 0 0 0 0 0 0 0 0 0 0 0 0 0 0 0 0 0 0 0 0 0 0 0 0
0 0 0 0 0 0 0 0 0 0 0 0 0 0 0 0 0 0 0 0 0 0 0 0 0 0 0 0 0 0 0 0 0 0 0 0 0 0 0 0 0 0 0 0 0
0 0 0 0 0 0 0 0 0 0 0 0 0 0 0 0 0 0 0 0 0 0 0 0 0 0 0 0 0 0 0 0 0 0 0 0 0 0 0 0 0 0 0 -0 0
0 0 0 0 0 0 0 0 0 0 0 0 0 0 0 0 0 0 0 0 0 0 0 0 0 0 0 0 0 0 0 0 0 0 0 0 0 0 0 0 0 0 0 -0 -0
0 0 0 0 0 0 0 0 0 0 0 0 0 0 0 0 0 0 0 0 0 0 0 0 0 0 0 0 0 0 0 0 0 0 0 0 0 0 0 0 0 0 0 0 -0
0 0 0 0 0 0 0 0 0 0 0 0 0 0 0 0 0 0 0 0 0 0 0 0 0 0 0 0 0 0 0 0 0 0 0 0 0 0 0 0 0 0 0 0 0
0 0 0 0 0 0 0 0 0 0 0 0 0 0 0 0 0 0 0 0 0 0 0 0 0 0 0 0 0 0 0 0 0 0 0 0 0 0 0 0 0 0 0 0 0
0 0 0 0 0 0 0 0 0 0 0 0 0 0 0 0 0 0 0 0 0 0 0 0 0 0 0 0 0 0 0 0 0 0 0 0 0 0 0 0 0 0 0 0 0
0 0 0 0 0 0 0 0 0 0 0 0 0 0 0 0 0 0 0 0 0 0 0 0 0 0 0 0 0 0 0 0 0 0 0 0 0 0 0 0 0 0 0 0 0
0 0 0 0 0 0 0 0 0 0 0 0 0 0 0 0 0 0 0 0 0 0 0 0 0 0 0 0 0 0 0 0 0 0 0 0 0 0 0 0 0 0 0 0 0
0 0 0 0 0 0 0 0 0 0 0 0 0 0 0 0 0 0 0 0 0 0 0 0 0 0 0 0 0 0 0 0 0 0 0 0 0 0 0 0 0 0 0 0 0
Wind_Speed_500mb
11 12 14 16 16 17 16 14 14 15 16 18 16 14 10 7 16 18 17 23 26 21 17 12 12 14 14 9 6 3 7 3 3 4 12 21 15 12 29 22 42 26 23 27 35
13 13 14 15 17 15 15 15 15 15 15 16 12 10 5 5 3 27 23 22 20 19 15 15 16 14 8 8 8 8 5 2 8 4 8 18 24 22 11 29 15 61 28 42 41
15 14 15 15 14 15 16 16 15 15 15 15 11 9 4 3 3 18 19 15 15 18 17 15 9 10 11 12 13 9 3 9 3 13 27 21 22 23 26 7 31 53 68 59 50
16 16 15 15 14 15 13 14 15 15 14 11 6 4 4 4 4 13 14 13 14 18 17 14 8 8 8 6 8 4 10 8 11 26 18 15 20 17 4 19 40 39 43 39 43
17 16 16 15 15 16 16 16 16 14 13 7 6 4 1 6 8 12 11 11 12 15 21 13 22 7 8 2 6 6 7 20 26 21 16 15 16 11 24 38 28 34 34 40 43
17 17 16 14 14 14 15 15 15 13 8 5 4 1 2 5 7 13 11 11 14 16 22 24 13 11 8 5 6 8 15 18 3 16 8 19 14 2 34 41 38 45 47 44 50
20 18 17 17 15 14 13 14 14 11 5 3 2 4 7 7 8 11 8 11 16 17 19 18 13 1 5 4 8 6 10 10 1 21 6 36 8 14 34 41 43 48 52 55 54
23 19 18 17 17 16 14 15 12 5 4 3 1 3 5 3 5 11 9 9 14 15 15 13 8 8 4 4 6 7 7 10 10 17 7 10 6 15 31 41 48 56 56 62 65
26 23 16 15 15 15 15 14 9 5 3 2 3 5 3 4 4 10 7 10 7 9 10 13 8 7 7 6 8 11 2 6 14 8 8 9 9 10 28 35 35 47 54 59 60
27 23 19 15 12 12 12 11 7 2 3 6 8 5 3 2 9 6 8 8 5 8 5 9 7 6 7 7 3 5 2 4 6 11 9 8 7 17 33 30 31 42 52 51 56
33 30 20 13 11 10 9 5 1 2 1 1 1 1 4 6 1 3 9 7 4 5 6 5 9 3 6 3 7 6 5 7 7 5 7 11 8 18 27 33 36 44 46 53 67
32 30 18 12 8 7 6 2 2 3 6 4 8 6 5 2 2 0 6 3 4 3 2 8 1 8 5 6 7 8 1 9 8 3 4 10 4 10 18 28 35 39 37 48 61
30 27 19 12 7 7 5 2 0 1 4 4 6 4 3 6 3 6 5 2 3 1 4 6 5 3 2 6 4 5 7 4 7 10 2 12 3 14 21 16 40 38 36 34 51
30 25 19 12 10 11 7 4 1 1 8 5 5 3 6 4 2 5 3 1 1 1 2 5 1 2 5 3 2 8 11 8 5 9 7 5 9 4 17 23 32 40 44 43 49
29 27 25 20 10 14 10 7 5 4 6 6 6 8 6 5 4 3 2 2 3 2 4 3 5 2 3 4 3 12 4 5 3 11 5 5 2 10 11 26 30 34 41 47 49
30 23 30 25 21 16 13 11 10 11 12 6 7 7 5 6 5 4 1 1 1 2 3 10 1 5 5 6 6 9 5 10 4 4 5 9 7 10 8 9 14 27 29 39 40
35 26 29 27 20 21 18 15 9 7 8 7 8 7 7 8 6 6 3 2 4 6 4 5 3 1 1 7 4 12 8 7 10 6 8 4 5 12 10 8 4 14 24 32 39
40 32 31 28 21 26 25 9 6 5 11 5 8 6 7 8 5 7 5 2 1 4 3 4 9 6 1 4 5 3 7 9 7 5 8 4 4 8 7 4 2 14 22 25 29
49 38 33 31 28 30 16 5 14 14 12 16 8 6 6 5 8 5 10 8 7 4 9 6 6 1 2 3 6 4 6 10 2 2 4 3 6 9 7 2 9 16 22 26 28
60 41 35 35 34 31 5 11 8 9 9 6 12 10 12 7 8 9 7 6 8 4 3 2 4 2 2 1 2 3 6 6 5 3 8 6 5 8 11 10 1 10 17 21 23
64 28 26 40 37 22 8 14 9 14 11 11 13 10 10 12 12 9 11 3 7 6 4 2 5 5 1 3 7 3 5 3 4 7 4 7 9 9 16 15 12 10 11 17 20
60 7 41 53 15 8 7 11 10 11 9 4 8 6 15 15 10 9 14 6 19 14 10 2 5 6 9 9 4 5 9 8 7 6 6 4 10 2 13 21 24 10 11 12 17
53 17 51 65 10 7 5 5 9 10 11 12 13 8 6 14 7 7 9 4 19 9 11 9 3 5 14 9 6 8 9 8 5 5 10 6 9 3 12 17 24 24 13 10 13
33 9 15 37 14 13 12 9 8 18 9 11 11 9 7 6 1 12 7 6 10 9 12 8 6 11 10 4 0 8 7 10 11 6 5 11 6 10 14 17 23 24 18 9 9
28 14 24 15 25 11 16 23 15 12 11 15 6 12 15 10 6 10 8 6 2 10 10 8 8 6 10 13 8 12 14 15 16 16 13 7 13 13 26 24 42 34 26 20 13
37 17 21 16 32 29 21 21 26 10 18 12 10 21 16 15 16 17 15 10 10 7 12 6 5 5 9 9 10 16 22 25 27 23 23 18 29 15 23 42 37 40 36 29 22
54 47 35 28 20 26 17 16 30 25 22 20 26 13 14 12 16 4 21 22 22 17 13 12 10 6 10 9 12 19 26 35 17 13 31 26 27 7 9 36 57 57 49 40 31
Wind_Direction_500mb
329 340 341 341 340 342 345 352 353 357 356 356 360 13 14 67 64 29 29 30 26 23 12 38 90 108 97 69 86 144 66 201 271 11 289 353 11 349 339 317 329 8 64 3 3
322 330 333 338 337 340 343 348 352 355 352 353 360 19 45 128 44 31 30 28 25 12 19 54 94 95 58 51 23 58 103 89 43 21 329 331 346 334 354 321 351 338 297 312 321
308 316 325 331 335 338 341 344 350 349 349 352 358 11 71 125 75 22 25 27 19 8 24 28 95 92 77 64 17 355 89 350 14 356 336 316 326 333 346 16 341 327 322 319 326
295 306 315 321 326 332 337 342 344 343 347 347 353 6 68 45 148 16 20 22 10 9 11 47 116 105 102 112 6 66 20 360 315 328 339 313 314 330 5 333 340 356 351 325 335
285 299 308 314 321 328 332 337 342 341 340 347 356 354 359 67 70 25 16 18 16 16 30 31 52 90 96 58 67 86 318 324 325 338 3 342 297 266 21 1 357 353 348 352 350
273 285 297 304 310 321 326 331 333 333 335 342 354 33 89 85 54 25 15 20 20 19 32 46 40 71 95 57 71 319 308 314 360 353 349 351 302 101 352 350 340 348 349 339 335
264 278 291 303 306 313 323 328 326 327 321 330 359 101 87 116 26 24 8 20 26 25 33 45 46 107 105 84 360 339 351 4 359 356 15 341 38 60 12 2 357 351 342 336 333
258 266 284 300 311 316 325 329 326 324 307 309 89 110 104 119 28 2 7 13 18 26 34 35 70 45 33 349 71 22 52 22 338 25 360 360 300 11 7 356 351 347 344 340 330
255 255 270 285 302 308 320 326 326 318 294 226 153 138 98 119 5 358 3 358 13 27 46 58 71 33 357 56 32 8 62 339 328 5 3 36 302 334 4 5 357 348 344 342 343
252 256 259 276 290 301 315 320 324 323 104 113 122 118 146 257 331 4 8 8 9 354 31 41 49 61 3 57 180 238 21 276 247 314 7 303 293 1 9 1 352 350 352 344 343
248 253 254 272 285 300 311 312 289 257 181 271 181 245 212 297 304 29 15 14 21 9 42 13 59 123 278 199 177 212 239 264 254 283 324 282 17 351 354 351 344 347 347 355 351
241 250 246 264 270 283 292 315 261 255 293 260 236 236 255 261 116 330 3 33 24 353 21 17 115 223 242 290 245 253 341 311 295 235 289 321 297 321 1 348 356 343 342 354 352
235 237 238 248 234 235 253 207 330 341 277 265 201 209 196 184 135 214 333 244 189 333 24 173 244 207 44 321 353 233 158 237 228 318 181 319 310 338 349 351 357 2 348 357 4
222 226 225 224 229 216 210 180 107 33 58 200 222 216 184 175 234 233 300 245 326 134 346 234 289 78 337 247 75 295 186 156 305 326 294 32 300 323 335 360 8 1 5 10 9
214 220 216 201 191 183 180 167 125 79 348 146 159 163 176 197 151 204 257 218 146 297 63 252 162 36 297 197 196 243 222 222 194 259 322 312 359 277 330 359 352 2 15 16 14
214 212 203 204 198 186 175 149 120 46 257 160 142 180 160 202 199 186 154 61 61 44 207 246 289 185 229 295 215 286 328 48 79 246 280 255 128 308 337 304 333 358 13 20 20
207 210 203 198 200 188 164 145 47 151 348 223 197 171 205 183 176 191 207 75 148 86 343 355 244 289 245 332 355 23 33 12 350 3 233 207 38 232 279 289 258 338 358 16 20
205 209 203 196 183 175 162 66 137 238 210 185 133 138 208 166 193 183 132 171 245 130 113 135 321 188 199 168 218 310 127 131 254 303 287 270 259 264 234 331 348 28 34 26 20
201 200 201 194 186 176 181 98 208 199 174 153 76 137 286 257 171 142 190 195 184 163 168 159 266 359 195 204 152 270 50 135 180 149 282 231 270 313 139 285 56 56 59 42 27
192 191 200 188 184 178 108 234 212 196 144 127 158 157 186 235 169 165 194 236 183 163 108 158 315 285 271 115 315 135 177 82 14 346 288 274 235 238 205 229 289 54 52 57 43
185 172 193 184 175 181 183 225 211 205 180 151 182 152 191 190 186 190 193 262 174 158 102 121 129 270 359 219 201 50 99 89 135 159 259 303 262 220 201 174 194 138 92 65 49
172 146 174 174 165 199 180 205 180 170 177 170 148 137 171 168 178 204 195 205 170 153 157 143 149 249 218 308 254 205 157 143 135 262 236 276 272 207 176 164 168 164 119 97 82
159 132 171 176 169 214 261 253 220 150 191 173 194 198 187 173 152 173 159 148 162 142 156 170 326 9 344 353 339 240 188 160 129 94 229 172 257 125 153 164 175 167 164 127 97
145 137 157 198 224 157 156 204 212 212 180 170 169 139 119 141 89 174 144 180 157 139 143 149 160 186 192 207 330 241 205 182 160 155 242 232 237 209 204 190 190 184 164 152 119
162 185 174 176 219 193 183 167 160 171 200 188 210 194 161 153 132 180 148 127 127 171 159 148 201 188 246 244 247 243 233 213 203 206 195 264 224 226 208 200 192 183 176 171 168
167 153 163 174 171 178 197 197 182 187 155 210 176 187 179 159 186 189 144 180 185 174 161 153 256 70 298 297 259 263 243 236 235 225 250 253 264 227 230 204 191 190 185 183 181
191 184 161 161 157 177 200 197 189 147 212 182 177 134 185 201 179 246 173 176 165 152 169 151 132 90 268 345 330 293 235 217 215 198 212 220 233 170 195 192 193 191 192 191 186
Wind_Speed_850mb
11 12 14 16 16 17 16 14 14 15 16 18 16 14 10 7 16 18 17 23 26 21 17 12 12 14 14 9 6 3 7 3 3 4 12 21 15 12 29 22 42 26 23 27 35
13 13 14 15 17 15 15 15 15 15 15 16 12 10 5 5 3 27 23 22 20 19 15 15 16 14 8 8 8 8 5 2 8 4 8 18 24 22 11 29 15 61 28 42 41
15 14 15 15 14 15 16 16 15 15 15 15 11 9 4 3 3 18 19 15 15 18 17 15 9 10 11 12 13 9 3 9 3 13 27 21 22 23 26 7 31 53 68 59 50
16 16 15 15 14 15 13 14 15 15 14 11 6 4 4 4 4 13 14 13 14 18 17 14 8 8 8 6 8 4 10 8 11 26 18 15 20 17 4 19 40 39 43 39 43
17 16 16 15 15 16 16 16 16 14 13 7 6 4 1 6 8 12 11 11 12 15 21 13 22 7 8 2 6 6 7 20 26 21 16 15 16 11 24 38 28 34 34 40 43
17 17 16 14 14 14 15 15 15 13 8 5 4 1 2 5 7 13 11 11 14 16 22 24 13 11 8 5 6 8 15 18 3 16 8 19 14 2 34 41 38 45 47 44 50
20 18 17 17 15 14 13 14 14 11 5 3 2 4 7 7 8 11 8 11 16 17 19 18 13 1 5 4 8 6 10 10 1 21 6 36 8 14 34 41 43 48 52 55 54
23 19 18 17 17 16 14 15 12 5 4 3 1 3 5 3 5 11 9 9 14 15 15 13 8 8 4 4 6 7 7 10 10 17 7 10 6 15 31 41 48 56 56 62 65
26 23 16 15 15 15 15 14 9 5 3 2 3 5 3 4 4 10 7 10 7 9 10 13 8 7 7 6 8 11 2 6 14 8 8 9 9 10 28 35 35 47 54 59 60
27 23 19 15 12 12 12 11 7 2 3 6 8 5 3 2 9 6 8 8 5 8 5 9 7 6 7 7 3 5 2 4 6 11 9 8 7 17 33 30 31 42 52 51 56
33 30 20 13 11 10 9 5 1 2 1 1 1 1 4 6 1 3 9 7 4 5 6 5 9 3 6 3 7 6 5 7 7 5 7 11 8 18 27 33 36 44 46 53 67
32 30 18 12 8 7 6 2 2 3 6 4 8 6 5 2 2 0 6 3 4 3 2 8 1 8 5 6 7 8 1 9 8 3 4 10 4 10 18 28 35 39 37 48 61
30 27 19 12 7 7 5 2 0 1 4 4 6 4 3 6 3 6 5 2 3 1 4 6 5 3 2 6 4 5 7 4 7 10 2 12 3 14 21 16 40 38 36 34 51
30 25 19 12 10 11 7 4 1 1 8 5 5 3 6 4 2 5 3 1 1 1 2 5 1 2 5 3 2 8 11 8 5 9 7 5 9 4 17 23 32 40 44 43 49
29 27 25 20 10 14 10 7 5 4 6 6 6 8 6 5 4 3 2 2 3 2 4 3 5 2 3 4 3 12 4 5 3 11 5 5 2 10 11 26 30 34 41 47 49
30 23 30 25 21 16 13 11 10 11 12 6 7 7 5 6 5 4 1 1 1 2 3 10 1 5 5 6 6 9 5 10 4 4 5 9 7 10 8 9 14 27 29 39 40
35 26 29 27 20 21 18 15 9 7 8 7 8 7 7 8 6 6 3 2 4 6 4 5 3 1 1 7 4 12 8 7 10 6 8 4 5 12 10 8 4 14 24 32 39
40 32 31 28 21 26 25 9 6 5 11 5 8 6 7 8 5 7 5 2 1 4 3 4 9 6 1 4 5 3 7 9 7 5 8 4 4 8 7 4 2 14 22 25 29
49 38 33 31 28 30 16 5 14 14 12 16 8 6 6 5 8 5 10 8 7 4 9 6 6 1 2 3 6 4 6 10 2 2 4 3 6 9 7 2 9 16 22 26 28
60 41 35 35 34 31 5 11 8 9 9 6 12 10 12 7 8 9 7 6 8 4 3 2 4 2 2 1 2 3 6 6 5 3 8 6 5 8 11 10 1 10 17 21 23
64 28 26 40 37 22 8 14 9 14 11 11 13 10 10 12 12 9 11 3 7 6 4 2 5 5 1 3 7 3 5 3 4 7 4 7 9 9 16 15 12 10 11 17 20
60 7 41 53 15 8 7 11 10 11 9 4 8 6 15 15 10 9 14 6 19 14 10 2 5 6 9 9 4 5 9 8 7 6 6 4 10 2 13 21 24 10 11 12 17
53 17 51 65 10 7 5 5 9 10 11 12 13 8 6 14 7 7 9 4 19 9 11 9 3 5 14 9 6 8 9 8 5 5 10 6 9 3 12 17 24 24 13 10 13
33 9 15 37 14 13 12 9 8 18 9 11 11 9 7 6 1 12 7 6 10 9 12 8 6 11 10 4 0 8 7 10 11 6 5 11 6 10 14 17 23 24 18 9 9
28 14 24 15 25 11 16 23 15 12 11 15 6 12 15 10 6 10 8 6 2 10 10 8 8 6 10 13 8 12 14 15 16 16 13 7 13 13 26 24 42 34 26 20 13
37 17 21 16 32 29 21 21 26 10 18 12 10 21 16 15 16 17 15 10 10 7 12 6 5 5 9 9 10 16 22 25 27 23 23 18 29 15 23 42 37 40 36 29 22
54 47 35 28 20 26 17 16 30 25 22 20 26 13 14 12 16 4 21 22 22 17 13 12 10 6 10 9 12 19 26 35 17 13 31 26 27 7 9 36 57 57 49 40 31
Wind_Direction_850mb
329 340 341 341 340 342 345 352 353 357 356 356 360 13 14 67 64 29 29 30 26 23 12 38 90 108 97 69 86 144 66 201 271 11 289 353 11 349 339 317 329 8 64 3 3
322 330 333 338 337 340 343 348 352 355 352 353 360 19 45 128 44 31 30 28 25 12 19 54 94 95 58 51 23 58 103 89 43 21 329 331 346 334 354 321 351 338 297 312 321
308 316 325 331 335 338 341 344 350 349 349 352 358 11 71 125 75 22 25 27 19 8 24 28 95 92 77 64 17 355 89 350 14 356 336 316 326 333 346 16 341 327 322 319 326
295 306 315 321 326 332 337 342 344 343 347 347 353 6 68 45 148 16 20 22 10 9 11 47 116 105 102 112 6 66 20 360 315 328 339 313 314 330 5 333 340 356 351 325 335
285 299 308 314 321 328 332 337 342 341 340 347 356 354 359 67 70 25 16 18 16 16 30 31 52 90 96 58 67 86 318 324 325 338 3 342 297 266 21 1 357 353 348 352 350
273 285 297 304 310 321 326 331 333 333 335 342 354 33 89 85 54 25 15 20 20 19 32 46 40 71 95 57 71 319 308 314 360 353 349 351 302 101 352 350 340 348 349 339 335
264 278 291 303 306 313 323 328 326 327 321 330 359 101 87 116 26 24 8 20 26 25 33 45 46 107 105 84 360 339 351 4 359 356 15 341 38 60 12 2 357 351 342 336 333
258 266 284 300 311 316 325 329 326 324 307 309 89 110 104 119 28 2 7 13 18 26 34 35 70 45 33 349 71 22 52 22 338 25 360 360 300 11 7 356 351 347 344 340 330
255 255 270 285 302 308 320 326 326 318 294 226 153 138 98 119 5 358 3 358 13 27 46 58 71 33 357 56 32 8 62 339 328 5 3 36 302 334 4 5 357 348 344 342 343
252 256 259 276 290 301 315 320 324 323 104 113 122 118 146 257 331 4 8 8 9 354 31 41 49 61 3 57 180 238 21 276 247 314 7 303 293 1 9 1 352 350 352 344 343
248 253 254 272 285 300 311 312 289 257 181 271 181 245 212 297 304 29 15 14 21 9 42 13 59 123 278 199 177 212 239 264 254 283 324 282 17 351 354 351 344 347 347 355 351
241 250 246 264 270 283 292 315 261 255 293 260 236 236 255 261 116 330 3 33 24 353 21 17 115 223 242 290 245 253 341 311 295 235 289 321 297 321 1 348 356 343 342 354 352
235 237 238 248 234 235 253 207 330 341 277 265 201 209 196 184 135 214 333 244 189 333 24 173 244 207 44 321 353 233 158 237 228 318 181 319 310 338 349 351 357 2 348 357 4
222 226 225 224 229 216 210 180 107 33 58 200 222 216 184 175 234 233 300 245 326 134 346 234 289 78 337 247 75 295 186 156 305 326 294 32 300 323 335 360 8 1 5 10 9
214 220 216 201 191 183 180 167 125 79 348 146 159 163 176 197 151 204 257 218 146 297 63 252 162 36 297 197 196 243 222 222 194 259 322 312 359 277 330 359 352 2 15 16 14
214 212 203 204 198 186 175 149 120 46 257 160 142 180 160 202 199 186 154 61 61 44 207 246 289 185 229 295 215 286 328 48 79 246 280 255 128 308 337 304 333 358 13 20 20
207 210 203 198 200 188 164 145 47 151 348 223 197 171 205 183 176 191 207 75 148 86 343 355 244 289 245 332 355 23 33 12 350 3 233 207 38 232 279 289 258 338 358 16 20
205 209 203 196 183 175 162 66 137 238 210 185 133 138 208 166 193 183 132 171 245 130 113 135 321 188 199 168 218 310 127 131 254 303 287 270 259 264 234 331 348 28 34 26 20
201 200 201 194 186 176 181 98 208 199 174 153 76 137 286 257 171 142 190 195 184 163 168 159 266 359 195 204 152 270 50 135 180 149 282 231 270 313 139 285 56 56 59 42 27
192 191 200 188 184 178 108 234 212 196 144 127 158 157 186 235 169 165 194 236 183 163 108 158 315 285 271 115 315 135 177 82 14 346 288 274 235 238 205 229 289 54 52 57 43
185 172 193 184 175 181 183 225 211 205 180 151 182 152 191 190 186 190 193 262 174 158 102 121 129 270 359 219 201 50 99 89 135 159 259 303 262 220 201 174 194 138 92 65 49
172 146 174 174 165 199 180 205 180 170 177 170 148 137 171 168 178 204 195 205 170 153 157 143 149 249 218 308 254 205 157 143 135 262 236 276 272 207 176 164 168 164 119 97 82
159 132 171 176 169 214 261 253 220 150 191 173 194 198 187 173 152 173 159 148 162 142 156 170 326 9 344 353 339 240 188 160 129 94 229 172 257 125 153 164 175 167 164 127 97
145 137 157 198 224 157 156 204 212 212 180 170 169 139 119 141 89 174 144 180 157 139 143 149 160 186 192 207 330 241 205 182 160 155 242 232 237 209 204 190 190 184 164 152 119
162 185 174 176 219 193 183 167 160 171 200 188 210 194 161 153 132 180 148 127 127 171 159 148 201 188 246 244 247 243 233 213 203 206 195 264 224 226 208 200 192 183 176 171 168
167 153 163 174 171 178 197 197 182 187 155 210 176 187 179 159 186 189 144 180 185 174 161 153 256 70 298 297 259 263 243 236 235 225 250 253 264 227 230 204 191 190 185 183 181
191 184 161 161 157 177 200 197 189 147 212 182 177 134 185 201 179 246 173 176 165 152 169 151 132 90 268 345 330 293 235 217 215 198 212 220 233 170 195 192 193 191 192 191 186